Location: Newark
(7.1028°S, 35.3258°W)
Time: 12:52:38
(UTC+00:00)

Vanguard 3 - Pass Details

Date: 18 February 2020
Orbit: 508 x 3263 km, 33.4° (Epoch: 04 April)

Event Time Altitude Azimuth Distance (km) Brightness Sun altitude
Rises 10:09:35 0° 276° (W) 2,596 9.2 24.4°
Reaches altitude 10° 10:13:27 10° 319° (NW) 1,818 8.6 25.4°
Maximum altitude 10:14:19 11° 331° (NNW) 1,828 8.7 25.6°
Drops below altitude 10° 10:15:14 10° 344° (NNW) 1,922 8.9 25.8°
Sets 10:20:02 0° 24° (NNE) 3,260 10.4 27.0°
